Location: Essen
(51.4609°N, 7.0127°E)
Time: 00:14:06
(UTC+01:00)

ISS - Pass Details

Date: 15 November 2017
Orbit: 402 x 407 km, 51.6° (Epoch: 22 November)

Event Time Altitude Azimuth Distance (km) Brightness Sun altitude
Exits shadow 04:55:20 17° 123° (ESE) 1,106 -1.1 -27.0°
Drops below altitude 10° 04:56:13 10° 120° (ESE) 1,454 -0.3 -26.8°
Sets 04:58:18 0° 116° (ESE) 2,311 0.9 -26.5°
